Showing default

TIANPING 3A-01, 61614

Orbit data source: Space-Track

TIANPING 3A-01, 61614 is a payload satellite owned by ZJUNI-SAT (CN) in SSO that was launched on Tue, 22 Oct 2024 UTC via a CHANG ZHENG 6 launch vehicle from the Taiyaun Space Center, China (TSC). Payload-class satellites include a variety of spacecraft equipped with specific instruments for various scientific and technological missions. These include communications satellites like Starlink; space stations such as the ISS; scientific satellites like the Hubble; Earth observation satellites from companies like Planet Labs, Umbra, and HawkEye 360; GPS; miniature CubeSats for education and research; and military/defense satellites.

Loading next visibility...
Identifier
61614, 2024-189A
Orbit
SSO
Country
Flag of CNCN / PRC
Related business
Manufacturer
ZJUNI-SAT
Mission
Operational Defense Calibration
Bus & Motor
TP-3, Unknown motor
Mass
200 kg wet, ~200 kg dry
Launch date (UTC)
2024-10-22 (2 years ago)
Launch vehicle
CHANG ZHENG 6
Launch site
Taiyaun Space Center, China (TSC)
Object type
Payload
Rocket body
Debris
Shape & HBR
Box, 0.3 m
Radar Cross Section
0.135 m², Large (>1 m²)

Expand to show TLE details & history
Last TLE update: 8 hours ago

TLE from 8 hours ago
0 TIANPING 3A-01
1 61614U 24189A   26227.57720328  .00001275  00000-0  10451-3 0  9994
2 61614  97.5168 245.8977 0000267 100.4004 259.7251 15.00966149 99394
Epoch: 2026-08-15T13:51Z
TLE epoch observation values (Epoch: 2026-08-15T13:51:10.363Z)
Latitude
0.00003°
Longitude
74.11843°
Altitude
567.01 km
Speed
7.578 km/s
True Right ascension
16h 23m 35s
True Declination
0° 00' 00"
Sunlit
Object was in daylight at epoch
Visualization orbit readout
Latitude
Unknown
Longitude
Unknown
Altitude
Unknown
Speed
Unknown
Apparent Right ascension
Unknown
Apparent Declination
Unknown
Sunlit
N/A
Visualization observer readout
Local Sidereal Time
12:28:09
Azimuth
Unknown
Elevation
Unknown
Doppler factor
Unknown
Orbital elements
Apogee altitude
561.097 km
Perigee altitude
560.726 km
Semi-major axis
6,939.049 km
Eccentricity
0.00003
Inclination
97.5168°
RAAN
245.8977°
Arg. of periapsis
100.4004°
True anomaly
259.72209°
Mean anomaly
259.7251°
Eccentric anomaly
259.72359°
Mean motion
3.75486 °/min
Orbital period
95.88 mins
BSTAR
0.00010451
Loading maneuver chart data...
Computing Atmospheric mass density...
Loading historical data...
Loading historical data...
Loading historical data...
Loading historical data...
Loading historical data...
Loading historical data...
Loading historical data...
Other satellites on launch #189 in the year 2024 (2024-10-22 UTC)

Documentation

Showing up to 5 results
|